AAL583 KDCA-KMDW

Flight info

Callsign AAL583
Flight time 1h 43m
Altitude 38000
Route WYNGS5 RAMAY Q72 HACKS J149 FWA PANGG7
Aircraft A319/M-SDE3FGHIRWY/LB1

Departure

Time 2026-05-05 02:17
Airport Ronald Reagan Washington National Airport (KDCA)

Arrival

Time 2026-05-05 04:01
Airport Chicago Midway International Airport (KMDW)
Time Latitude Longitude Altitude Speed Heading
2026-05-05 00:40 38.85480 -77.04108 24 ft 0 kts 217°
2026-05-05 02:08 38.85492 -77.04095 25 ft 3 kts 217°
2026-05-05 02:09 38.85508 -77.04080 25 ft 2 kts 218°
2026-05-05 02:09 38.85524 -77.04061 26 ft 3 kts 244°
2026-05-05 02:09 38.85527 -77.04037 24 ft 3 kts 294°
2026-05-05 02:09 38.85515 -77.04019 25 ft 3 kts 342°
2026-05-05 02:10 38.85496 -77.04012 25 ft 0 kts 343°
2026-05-05 02:13 38.85506 -77.04015 24 ft 3 kts 343°
2026-05-05 02:13 38.85530 -77.04024 24 ft 5 kts 343°
2026-05-05 02:13 38.85567 -77.04035 24 ft 6 kts 353°
2026-05-05 02:13 38.85616 -77.04040 24 ft 8 kts 356°
2026-05-05 02:14 38.85676 -77.04045 25 ft 9 kts 356°
2026-05-05 02:14 38.85743 -77.04051 29 ft 10 kts 356°
2026-05-05 02:14 38.85814 -77.04058 26 ft 11 kts 355°
2026-05-05 02:14 38.85898 -77.04066 25 ft 11 kts 360°
2026-05-05 02:15 38.85938 -77.04000 24 ft 10 kts 72°
2026-05-05 02:15 38.85997 -77.03958 24 ft 11 kts 15°
2026-05-05 02:15 38.86060 -77.03935 24 ft 10 kts 20°
2026-05-05 02:15 38.86088 -77.03873 23 ft 7 kts 111°
2026-05-05 02:16 38.86042 -77.03863 24 ft 6 kts 177°
2026-05-05 02:16 38.86034 -77.03862 24 ft 0 kts 176°
2026-05-05 02:16 38.85900 -77.03850 26 ft 57 kts 175°
2026-05-05 02:16 38.85266 -77.03787 25 ft 125 kts 175°
2026-05-05 02:17 38.84260 -77.03687 297 ft 153 kts 176°
2026-05-05 02:17 38.83147 -77.03581 863 ft 164 kts 177°
2026-05-05 02:17 38.81952 -77.03476 1391 ft 185 kts 180°
2026-05-05 02:17 38.80588 -77.03376 2065 ft 202 kts 182°
2026-05-05 02:18 38.79163 -77.03316 2797 ft 214 kts 184°
2026-05-05 02:18 38.77641 -77.03342 3587 ft 223 kts 191°
2026-05-05 02:18 38.76175 -77.04068 4127 ft 237 kts 224°
2026-05-05 02:18 38.75210 -77.05797 4980 ft 243 kts 246°
2026-05-05 02:19 38.74733 -77.07884 5943 ft 247 kts 263°
2026-05-05 02:19 38.74622 -77.10091 6892 ft 251 kts 267°
2026-05-05 02:19 38.74504 -77.12337 7848 ft 254 kts 268°
2026-05-05 02:19 38.74371 -77.14605 8808 ft 257 kts 268°
2026-05-05 02:20 38.74225 -77.16904 9784 ft 260 kts 269°
2026-05-05 02:20 38.74074 -77.19268 10400 ft 276 kts 269°
2026-05-05 02:20 38.73918 -77.21775 11056 ft 286 kts 269°
2026-05-05 02:20 38.74013 -77.24328 11874 ft 289 kts 281°
2026-05-05 02:21 38.74607 -77.26801 12735 ft 293 kts 294°
2026-05-05 02:21 38.75631 -77.29078 13592 ft 297 kts 300°
2026-05-05 02:21 38.76731 -77.31345 14339 ft 302 kts 300°
2026-05-05 02:21 38.77843 -77.33649 15033 ft 307 kts 300°
2026-05-05 02:22 38.78973 -77.35998 15755 ft 312 kts 300°
2026-05-05 02:22 38.80119 -77.38388 16447 ft 317 kts 300°
2026-05-05 02:22 38.81284 -77.40820 17135 ft 323 kts 300°
2026-05-05 02:22 38.82467 -77.43292 17805 ft 328 kts 300°
2026-05-05 02:23 38.83668 -77.45804 18427 ft 333 kts 300°
2026-05-05 02:23 38.84887 -77.48353 19031 ft 337 kts 300°
2026-05-05 02:23 38.86121 -77.50928 19665 ft 340 kts 300°
2026-05-05 02:23 38.87362 -77.53519 20303 ft 343 kts 300°
2026-05-05 02:24 38.88614 -77.56143 20937 ft 346 kts 300°
2026-05-05 02:24 38.89873 -77.58787 21567 ft 349 kts 300°
2026-05-05 02:24 38.91137 -77.61447 22283 ft 349 kts 300°
2026-05-05 02:24 38.92406 -77.64112 22954 ft 351 kts 300°
2026-05-05 02:25 38.93534 -77.66930 23376 ft 359 kts 290°
2026-05-05 02:25 38.94217 -77.70031 23846 ft 363 kts 279°
2026-05-05 02:25 38.94438 -77.73274 24345 ft 366 kts 272°
2026-05-05 02:25 38.94546 -77.76552 24877 ft 369 kts 272°
2026-05-05 02:26 38.94661 -77.79850 25401 ft 371 kts 273°
2026-05-05 02:26 38.94781 -77.83174 25892 ft 373 kts 273°
2026-05-05 02:26 38.94901 -77.86513 26388 ft 376 kts 273°
2026-05-05 02:26 38.95019 -77.89881 26887 ft 378 kts 273°
2026-05-05 02:27 38.95132 -77.93218 27361 ft 380 kts 273°
2026-05-05 02:27 38.95246 -77.96602 27977 ft 379 kts 274°
2026-05-05 02:27 38.95361 -77.99979 28519 ft 379 kts 274°
2026-05-05 02:27 38.95476 -78.03375 28985 ft 381 kts 274°
2026-05-05 02:28 38.95589 -78.06790 29422 ft 384 kts 274°
2026-05-05 02:28 38.95703 -78.10232 29866 ft 387 kts 274°
2026-05-05 02:28 38.95814 -78.13700 30248 ft 390 kts 274°
2026-05-05 02:28 38.95925 -78.17194 30602 ft 393 kts 274°
2026-05-05 02:29 38.96037 -78.20712 30950 ft 396 kts 274°
2026-05-05 02:29 38.96176 -78.24253 31292 ft 398 kts 275°
2026-05-05 02:29 38.96382 -78.27810 31634 ft 401 kts 276°
2026-05-05 02:29 38.96630 -78.31393 31973 ft 404 kts 276°
2026-05-05 02:30 38.96895 -78.35000 32316 ft 406 kts 276°
2026-05-05 02:30 38.97156 -78.38612 32783 ft 406 kts 276°
2026-05-05 02:30 38.97405 -78.42219 33255 ft 405 kts 276°
2026-05-05 02:30 38.97643 -78.45827 33705 ft 405 kts 275°
2026-05-05 02:31 38.97871 -78.49431 34106 ft 405 kts 275°
2026-05-05 02:31 38.98092 -78.53038 34495 ft 404 kts 275°
2026-05-05 02:31 38.98313 -78.56640 34897 ft 403 kts 275°
2026-05-05 02:31 38.98535 -78.60226 35287 ft 402 kts 275°
2026-05-05 02:32 38.98756 -78.63749 35666 ft 401 kts 275°
2026-05-05 02:32 38.98977 -78.67319 36064 ft 399 kts 275°
2026-05-05 02:32 38.99194 -78.70870 36452 ft 398 kts 275°
2026-05-05 02:32 38.99408 -78.74413 36813 ft 397 kts 274°
2026-05-05 02:33 38.99622 -78.77953 37177 ft 396 kts 274°
2026-05-05 02:33 38.99837 -78.81479 37520 ft 395 kts 274°
2026-05-05 02:33 39.00051 -78.84999 37850 ft 395 kts 274°
2026-05-05 02:34 39.00469 -78.91952 37931 ft 382 kts 274°
2026-05-05 02:34 39.00868 -78.98709 37936 ft 377 kts 274°
2026-05-05 02:35 39.01260 -79.05429 37934 ft 377 kts 274°
2026-05-05 02:35 39.01650 -79.12143 37934 ft 376 kts 274°
2026-05-05 02:36 39.02032 -79.18837 37942 ft 376 kts 274°
2026-05-05 02:36 39.02463 -79.25540 37943 ft 376 kts 275°
2026-05-05 02:37 39.02919 -79.32239 37945 ft 376 kts 275°
2026-05-05 02:37 39.03364 -79.38940 37946 ft 376 kts 274°
2026-05-05 02:38 39.03789 -79.45596 37958 ft 376 kts 274°
2026-05-05 02:38 39.04212 -79.52293 37961 ft 376 kts 274°
2026-05-05 02:39 39.04630 -79.58987 37965 ft 375 kts 274°
2026-05-05 02:39 39.05044 -79.65679 37962 ft 375 kts 274°
2026-05-05 02:40 39.05459 -79.72367 37967 ft 375 kts 274°
2026-05-05 02:40 39.05870 -79.79051 37969 ft 375 kts 274°
2026-05-05 02:41 39.06275 -79.85739 37966 ft 375 kts 274°
2026-05-05 02:41 39.06681 -79.92432 37959 ft 375 kts 274°
2026-05-05 02:42 39.07086 -79.99122 37959 ft 375 kts 274°
2026-05-05 02:42 39.07480 -80.05814 37944 ft 375 kts 274°
2026-05-05 02:43 39.07863 -80.12518 37917 ft 375 kts 274°
2026-05-05 02:43 39.08247 -80.19216 37914 ft 375 kts 274°
2026-05-05 02:44 39.08632 -80.25913 37916 ft 375 kts 274°
2026-05-05 02:44 39.09016 -80.32607 37907 ft 375 kts 274°
2026-05-05 02:45 39.09380 -80.39303 37903 ft 375 kts 274°
2026-05-05 02:45 39.09730 -80.46000 37907 ft 375 kts 274°
2026-05-05 02:46 39.10084 -80.52651 37896 ft 375 kts 274°
2026-05-05 02:46 39.10436 -80.59347 37896 ft 375 kts 274°
2026-05-05 02:47 39.10783 -80.66039 37889 ft 375 kts 274°
2026-05-05 02:47 39.11122 -80.72728 37888 ft 374 kts 274°
2026-05-05 02:48 39.11462 -80.79415 37881 ft 374 kts 274°
2026-05-05 02:48 39.11802 -80.86104 37882 ft 374 kts 274°
2026-05-05 02:49 39.12138 -80.92793 37888 ft 374 kts 274°
2026-05-05 02:49 39.12466 -80.99486 37884 ft 374 kts 274°
2026-05-05 02:50 39.12797 -81.06174 37879 ft 374 kts 277°
2026-05-05 02:50 39.14274 -81.12558 37873 ft 375 kts 296°
2026-05-05 02:51 39.16731 -81.18485 37867 ft 375 kts 296°
2026-05-05 02:51 39.19173 -81.24425 37862 ft 375 kts 296°
2026-05-05 02:52 39.21603 -81.30381 37875 ft 375 kts 296°
2026-05-05 02:52 39.24037 -81.36334 37879 ft 375 kts 296°
2026-05-05 02:53 39.26057 -81.41277 37883 ft 374 kts 296°
2026-05-05 02:53 39.28476 -81.47224 37894 ft 374 kts 296°
2026-05-05 02:54 39.30895 -81.53182 37885 ft 375 kts 296°
2026-05-05 02:54 39.33705 -81.60106 37866 ft 375 kts 296°
2026-05-05 02:55 39.35730 -81.65107 37858 ft 375 kts 296°
2026-05-05 02:55 39.38129 -81.71039 37853 ft 375 kts 296°
2026-05-05 02:56 39.40542 -81.77006 37855 ft 375 kts 296°
2026-05-05 02:56 39.42955 -81.82985 37849 ft 375 kts 296°
2026-05-05 02:57 39.45358 -81.88966 37854 ft 375 kts 296°
2026-05-05 02:57 39.47758 -81.94953 37852 ft 375 kts 296°
2026-05-05 02:58 39.50161 -82.00942 37850 ft 375 kts 296°
2026-05-05 02:58 39.52551 -82.06935 37851 ft 375 kts 295°
2026-05-05 02:59 39.54938 -82.12932 37858 ft 375 kts 295°
2026-05-05 02:59 39.57334 -82.18938 37852 ft 375 kts 295°
2026-05-05 03:00 39.59721 -82.24950 37843 ft 375 kts 295°
2026-05-05 03:00 39.62100 -82.30966 37844 ft 375 kts 295°
2026-05-05 03:01 39.64480 -82.36993 37842 ft 375 kts 295°
2026-05-05 03:01 39.66856 -82.43017 37845 ft 375 kts 295°
2026-05-05 03:02 39.69229 -82.49034 37845 ft 374 kts 295°
2026-05-05 03:02 39.71599 -82.55056 37841 ft 374 kts 295°
2026-05-05 03:03 39.73963 -82.61076 37840 ft 374 kts 295°
2026-05-05 03:03 39.76310 -82.67059 37838 ft 374 kts 295°
2026-05-05 03:04 39.78660 -82.73081 37837 ft 374 kts 295°
2026-05-05 03:04 39.81013 -82.79109 37842 ft 374 kts 294°
2026-05-05 03:05 39.83363 -82.85139 37839 ft 374 kts 294°
2026-05-05 03:05 39.85707 -82.91170 37834 ft 373 kts 294°
2026-05-05 03:06 39.88041 -82.97206 37831 ft 373 kts 294°
2026-05-05 03:06 39.90373 -83.03252 37829 ft 373 kts 294°
2026-05-05 03:07 39.92708 -83.09292 37828 ft 373 kts 294°
2026-05-05 03:07 39.95040 -83.15339 37828 ft 373 kts 294°
2026-05-05 03:08 39.97362 -83.21385 37830 ft 373 kts 294°
2026-05-05 03:08 39.99677 -83.27428 37826 ft 372 kts 294°
2026-05-05 03:09 40.01988 -83.33459 37814 ft 372 kts 294°
2026-05-05 03:09 40.04299 -83.39497 37803 ft 372 kts 294°
2026-05-05 03:10 40.06604 -83.45529 37831 ft 371 kts 294°
2026-05-05 03:10 40.08901 -83.51566 37793 ft 371 kts 293°
2026-05-05 03:11 40.11196 -83.57596 37793 ft 370 kts 293°
2026-05-05 03:11 40.13466 -83.63584 37786 ft 370 kts 293°
2026-05-05 03:12 40.15743 -83.69605 37790 ft 369 kts 293°
2026-05-05 03:12 40.18017 -83.75625 37793 ft 369 kts 293°
2026-05-05 03:13 40.20283 -83.81642 37791 ft 369 kts 293°
2026-05-05 03:13 40.22549 -83.87659 37793 ft 369 kts 293°
2026-05-05 03:14 40.24810 -83.93681 37787 ft 369 kts 293°
2026-05-05 03:14 40.27069 -83.99713 37776 ft 369 kts 293°
2026-05-05 03:15 40.29568 -84.05600 37772 ft 373 kts 304°
2026-05-05 03:15 40.32832 -84.10909 37779 ft 374 kts 305°
2026-05-05 03:16 40.36100 -84.16222 37776 ft 374 kts 305°
2026-05-05 03:16 40.39353 -84.21546 37779 ft 374 kts 305°
2026-05-05 03:17 40.42608 -84.26875 37781 ft 374 kts 305°
2026-05-05 03:17 40.45861 -84.32210 37782 ft 374 kts 305°
2026-05-05 03:18 40.49090 -84.37510 37780 ft 374 kts 305°
2026-05-05 03:18 40.52340 -84.42849 37734 ft 374 kts 305°
2026-05-05 03:19 40.57203 -84.50861 37730 ft 374 kts 304°
2026-05-05 03:19 40.60442 -84.56215 37723 ft 374 kts 304°
2026-05-05 03:20 40.63674 -84.61573 37728 ft 374 kts 304°
2026-05-05 03:20 40.66908 -84.66934 37728 ft 374 kts 304°
2026-05-05 03:21 40.70138 -84.72295 37727 ft 373 kts 304°
2026-05-05 03:21 40.73363 -84.77655 37725 ft 373 kts 304°
2026-05-05 03:22 40.76580 -84.83019 37724 ft 373 kts 304°
2026-05-05 03:22 40.79788 -84.88383 37767 ft 372 kts 304°
2026-05-05 03:23 40.82991 -84.93737 37740 ft 370 kts 304°
2026-05-05 03:23 40.86200 -84.99117 37482 ft 380 kts 304°
2026-05-05 03:24 40.87858 -85.01903 36620 ft 389 kts 304°
2026-05-05 03:24 40.89514 -85.04678 36345 ft 381 kts 304°
2026-05-05 03:24 40.91145 -85.07411 35937 ft 377 kts 304°
2026-05-05 03:24 40.92759 -85.10119 35533 ft 373 kts 303°
2026-05-05 03:25 40.94359 -85.12807 35110 ft 370 kts 303°
2026-05-05 03:25 40.95943 -85.15474 34693 ft 368 kts 303°
2026-05-05 03:25 40.97645 -85.18006 34222 ft 371 kts 311°
2026-05-05 03:25 40.99675 -85.20162 33880 ft 381 kts 321°
2026-05-05 03:26 41.01985 -85.22017 33800 ft 393 kts 323°
2026-05-05 03:26 41.04351 -85.23881 33833 ft 399 kts 323°
2026-05-05 03:26 41.09159 -85.27657 33819 ft 403 kts 323°
2026-05-05 03:27 41.11571 -85.29546 33425 ft 404 kts 323°
2026-05-05 03:27 41.13991 -85.31446 32713 ft 404 kts 323°
2026-05-05 03:27 41.16434 -85.33378 31705 ft 413 kts 323°
2026-05-05 03:27 41.18908 -85.35337 31003 ft 414 kts 324°
2026-05-05 03:28 41.21375 -85.37290 30420 ft 412 kts 324°
2026-05-05 03:28 41.23831 -85.39236 29888 ft 410 kts 324°
2026-05-05 03:28 41.26238 -85.41144 29331 ft 407 kts 323°
2026-05-05 03:28 41.28685 -85.43084 28794 ft 402 kts 323°
2026-05-05 03:29 41.31045 -85.44950 28280 ft 397 kts 323°
2026-05-05 03:29 41.33404 -85.46821 27741 ft 393 kts 323°
2026-05-05 03:29 41.35744 -85.48683 27202 ft 390 kts 323°
2026-05-05 03:29 41.38061 -85.50531 26599 ft 386 kts 323°
2026-05-05 03:30 41.40349 -85.52356 25956 ft 382 kts 323°
2026-05-05 03:30 41.42617 -85.54166 25268 ft 377 kts 323°
2026-05-05 03:30 41.44857 -85.55956 24552 ft 373 kts 323°
2026-05-05 03:30 41.47068 -85.57727 23858 ft 369 kts 323°
2026-05-05 03:31 41.49063 -85.59770 23310 ft 355 kts 308°
2026-05-05 03:31 41.50520 -85.62330 22771 ft 341 kts 294°
2026-05-05 03:31 41.51414 -85.65197 22327 ft 329 kts 281°
2026-05-05 03:31 41.51738 -85.68157 21915 ft 317 kts 270°
2026-05-05 03:32 41.51797 -85.71058 21506 ft 309 kts 270°
2026-05-05 03:32 41.51857 -85.73893 21113 ft 303 kts 270°
2026-05-05 03:32 41.51916 -85.76694 20726 ft 301 kts 270°
2026-05-05 03:32 41.51974 -85.79469 20343 ft 298 kts 270°
2026-05-05 03:33 41.52030 -85.82229 19959 ft 297 kts 270°
2026-05-05 03:33 41.52083 -85.84970 19582 ft 295 kts 270°
2026-05-05 03:33 41.52137 -85.87697 19206 ft 293 kts 270°
2026-05-05 03:33 41.52188 -85.90411 18836 ft 292 kts 270°
2026-05-05 03:34 41.52238 -85.93116 18463 ft 291 kts 270°
2026-05-05 03:34 41.52287 -85.95815 18090 ft 290 kts 270°
2026-05-05 03:34 41.52336 -85.98493 17753 ft 287 kts 270°
2026-05-05 03:34 41.52384 -86.01126 17591 ft 279 kts 270°
2026-05-05 03:35 41.52432 -86.03688 17342 ft 274 kts 270°
2026-05-05 03:35 41.52480 -86.06215 16965 ft 272 kts 270°
2026-05-05 03:35 41.52514 -86.08734 16631 ft 270 kts 269°
2026-05-05 03:35 41.52514 -86.11236 16300 ft 270 kts 269°
2026-05-05 03:36 41.52499 -86.13732 15971 ft 269 kts 269°
2026-05-05 03:36 41.52479 -86.16227 15646 ft 268 kts 269°
2026-05-05 03:36 41.52460 -86.18714 15320 ft 268 kts 269°
2026-05-05 03:36 41.52445 -86.21202 14996 ft 268 kts 269°
2026-05-05 03:37 41.52431 -86.23651 14676 ft 268 kts 269°
2026-05-05 03:37 41.52414 -86.26131 14362 ft 267 kts 269°
2026-05-05 03:37 41.52398 -86.28608 14039 ft 267 kts 270°
2026-05-05 03:37 41.52383 -86.31089 13711 ft 267 kts 270°
2026-05-05 03:38 41.52368 -86.33571 13375 ft 268 kts 270°
2026-05-05 03:38 41.52353 -86.36054 13022 ft 267 kts 270°
2026-05-05 03:38 41.52338 -86.38526 12684 ft 266 kts 270°
2026-05-05 03:38 41.52325 -86.40989 12349 ft 265 kts 270°
2026-05-05 03:39 41.52311 -86.43445 12014 ft 264 kts 270°
2026-05-05 03:39 41.52296 -86.45890 11694 ft 263 kts 270°
2026-05-05 03:39 41.52278 -86.48328 11358 ft 263 kts 270°
2026-05-05 03:39 41.52258 -86.50764 10998 ft 263 kts 270°
2026-05-05 03:40 41.52238 -86.53205 10636 ft 263 kts 270°
2026-05-05 03:40 41.52218 -86.55645 10286 ft 263 kts 270°
2026-05-05 03:40 41.52199 -86.58081 9956 ft 262 kts 269°
2026-05-05 03:40 41.52183 -86.60526 9821 ft 265 kts 269°
2026-05-05 03:41 41.52165 -86.62989 9666 ft 266 kts 270°
2026-05-05 03:41 41.52147 -86.65458 9491 ft 266 kts 270°
2026-05-05 03:41 41.52126 -86.67921 9316 ft 265 kts 269°
2026-05-05 03:41 41.52104 -86.70379 9149 ft 264 kts 269°
2026-05-05 03:42 41.52083 -86.72827 8982 ft 264 kts 269°
2026-05-05 03:42 41.52059 -86.75267 8815 ft 263 kts 269°
2026-05-05 03:42 41.52034 -86.77707 8650 ft 263 kts 269°
2026-05-05 03:42 41.52010 -86.80108 8487 ft 262 kts 269°
2026-05-05 03:43 41.51984 -86.82532 8321 ft 261 kts 269°
2026-05-05 03:43 41.51957 -86.84953 8157 ft 260 kts 269°
2026-05-05 03:43 41.51932 -86.87368 7986 ft 260 kts 270°
2026-05-05 03:43 41.51907 -86.89780 7826 ft 261 kts 270°
2026-05-05 03:44 41.51885 -86.92198 7660 ft 260 kts 270°
2026-05-05 03:44 41.51863 -86.94610 7490 ft 259 kts 270°
2026-05-05 03:44 41.51836 -86.97006 7327 ft 258 kts 269°
2026-05-05 03:44 41.51807 -86.99392 7162 ft 257 kts 269°
2026-05-05 03:45 41.51777 -87.01770 6996 ft 256 kts 269°
2026-05-05 03:45 41.51744 -87.04151 6833 ft 256 kts 269°
2026-05-05 03:45 41.51714 -87.06522 6666 ft 256 kts 270°
2026-05-05 03:45 41.51685 -87.08889 6501 ft 255 kts 269°
2026-05-05 03:46 41.51655 -87.11251 6318 ft 254 kts 270°
2026-05-05 03:46 41.51870 -87.13572 6152 ft 253 kts 287°
2026-05-05 03:46 41.52724 -87.15621 5999 ft 256 kts 308°
2026-05-05 03:46 41.53603 -87.16684 5912 ft 260 kts 321°
2026-05-05 03:47 41.55252 -87.17716 5791 ft 265 kts 334°
2026-05-05 03:47 41.56976 -87.18569 5649 ft 264 kts 334°
2026-05-05 03:47 41.58701 -87.19423 5510 ft 264 kts 334°
2026-05-05 03:47 41.60422 -87.20279 5375 ft 264 kts 334°
2026-05-05 03:48 41.62141 -87.21136 5252 ft 263 kts 334°
2026-05-05 03:48 41.64409 -87.22270 5081 ft 263 kts 334°
2026-05-05 03:48 41.65566 -87.22850 4992 ft 262 kts 334°
2026-05-05 03:48 41.67271 -87.23704 4869 ft 262 kts 334°
2026-05-05 03:49 41.68974 -87.24559 4740 ft 262 kts 333°
2026-05-05 03:49 41.70674 -87.25418 4609 ft 261 kts 333°
2026-05-05 03:49 41.72373 -87.26274 4485 ft 261 kts 333°
2026-05-05 03:49 41.74068 -87.27126 4357 ft 260 kts 333°
2026-05-05 03:50 41.75735 -87.27969 4235 ft 259 kts 332°
2026-05-05 03:50 41.77383 -87.28915 4109 ft 257 kts 329°
2026-05-05 03:50 41.79003 -87.29925 3966 ft 256 kts 328°
2026-05-05 03:50 41.80611 -87.30951 3850 ft 256 kts 328°
2026-05-05 03:51 41.82220 -87.31976 3725 ft 255 kts 328°
2026-05-05 03:51 41.83656 -87.33302 3595 ft 248 kts 309°
2026-05-05 03:51 41.84608 -87.35168 3479 ft 239 kts 290°
2026-05-05 03:51 41.85004 -87.37244 3357 ft 223 kts 272°
2026-05-05 03:52 41.85016 -87.39265 3249 ft 211 kts 268°
2026-05-05 03:52 41.85016 -87.41185 3141 ft 200 kts 269°
2026-05-05 03:52 41.85019 -87.42991 3046 ft 188 kts 268°
2026-05-05 03:52 41.85029 -87.44707 2946 ft 180 kts 270°
2026-05-05 03:53 41.85301 -87.46318 2838 ft 175 kts 283°
2026-05-05 03:53 41.85664 -87.47836 2740 ft 167 kts 282°
2026-05-05 03:53 41.86007 -87.49292 2648 ft 160 kts 282°
2026-05-05 03:53 41.86332 -87.50673 2573 ft 151 kts 281°
2026-05-05 03:54 41.86638 -87.51975 2469 ft 141 kts 281°
2026-05-05 03:54 41.86916 -87.53154 2394 ft 125 kts 279°
2026-05-05 03:54 41.87161 -87.54180 2329 ft 107 kts 278°
2026-05-05 03:54 41.87381 -87.55123 2289 ft 115 kts 278°
2026-05-05 03:55 41.87615 -87.56132 2206 ft 109 kts 279°
2026-05-05 03:55 41.87857 -87.57064 2013 ft 105 kts 279°
2026-05-05 03:55 41.88078 -87.58000 1693 ft 106 kts 275°
2026-05-05 03:55 41.88409 -87.58926 1331 ft 115 kts 295°
2026-05-05 03:56 41.88604 -87.59940 879 ft 120 kts 259°
2026-05-05 03:56 41.88239 -87.61000 1315 ft 132 kts 234°
2026-05-05 03:56 41.87622 -87.61936 1623 ft 122 kts 230°
2026-05-05 03:56 41.87135 -87.62692 1590 ft 99 kts 229°
2026-05-05 03:57 41.86665 -87.63435 1569 ft 116 kts 234°
2026-05-05 03:57 41.86185 -87.64323 1678 ft 114 kts 236°
2026-05-05 03:57 41.85751 -87.65222 1645 ft 119 kts 239°
2026-05-05 03:57 41.85597 -87.65585 1612 ft 122 kts 242°
2026-05-05 03:58 41.85169 -87.66598 1531 ft 124 kts 234°
2026-05-05 03:58 41.84580 -87.67453 1490 ft 125 kts 227°
2026-05-05 03:58 41.83970 -87.68245 1530 ft 122 kts 225°
2026-05-05 03:58 41.83347 -87.69042 1473 ft 124 kts 227°
2026-05-05 03:59 41.82721 -87.69854 1443 ft 127 kts 225°
2026-05-05 03:59 41.82078 -87.70678 1376 ft 130 kts 225°
2026-05-05 03:59 41.81417 -87.71498 1271 ft 130 kts 223°
2026-05-05 03:59 41.80748 -87.72348 1119 ft 133 kts 226°
2026-05-05 04:00 41.80088 -87.73194 936 ft 129 kts 224°
2026-05-05 04:00 41.79440 -87.73998 781 ft 125 kts 222°
2026-05-05 04:00 41.78832 -87.74773 636 ft 110 kts 223°
2026-05-05 04:00 41.78358 -87.75368 631 ft 74 kts 223°
2026-05-05 04:01 41.78077 -87.75725 631 ft 37 kts 224°
2026-05-05 04:01 41.77953 -87.75877 628 ft 12 kts 199°
2026-05-05 04:01 41.77914 -87.75798 634 ft 13 kts 87°
2026-05-05 04:01 41.77950 -87.75687 632 ft 14 kts 43°
2026-05-05 04:02 41.78027 -87.75591 633 ft 16 kts 43°
2026-05-05 04:02 41.78112 -87.75484 632 ft 18 kts 43°
2026-05-05 04:02 41.78202 -87.75369 629 ft 18 kts 43°
2026-05-05 04:02 41.78297 -87.75249 632 ft 17 kts 43°
2026-05-05 04:03 41.78372 -87.75154 631 ft 16 kts 43°
2026-05-05 04:03 41.78456 -87.75048 629 ft 18 kts 43°
2026-05-05 04:03 41.78521 -87.74965 633 ft 13 kts 44°
2026-05-05 04:03 41.78589 -87.74878 629 ft 14 kts 44°
2026-05-05 04:04 41.78618 -87.74801 629 ft 8 kts 123°
2026-05-05 04:04 41.78574 -87.74738 629 ft 10 kts 135°
2026-05-05 04:04 41.78518 -87.74662 629 ft 12 kts 133°
2026-05-05 04:04 41.78455 -87.74572 629 ft 13 kts 133°
2026-05-05 04:05 41.78402 -87.74497 629 ft 12 kts 133°
2026-05-05 04:05 41.78374 -87.74437 631 ft 6 kts 71°
2026-05-05 04:05 41.78406 -87.74409 629 ft 6 kts 30°
2026-05-05 04:05 41.78430 -87.74389 629 ft 2 kts 32°
2026-05-05 04:06 41.78439 -87.74382 632 ft 1 kts 32°
2026-05-05 04:06 41.78440 -87.74380 631 ft 0 kts 32°